DAEIM ENAT-EDDK

Flight info

Callsign DAEIM
Flight time N/A
Altitude 38000
Route LUVED DCT KRA DCT HOT DCT SVE DCT TUMGU/N0461F400 L996 OKSAT/N0457F390 L996 GETPA L727 LATKU L996 KELIN/N0459F400 DCT VADIN M852 ALASA/N0457F390 M852 EKERN/N0461F400 N125 ELSOB/N0456F390 N850 LARBU Z189 RUNER T858 KOPAG
Aircraft A333/H-SDE2E3FGHIJ3J4J5LM1OP2RWXYZ/LB2D1

Departure

Time 2026-04-10 00:58
Airport Alta Airport (ENAT)

Arrival

Time N/A
Airport Cologne Bonn Airport (EDDK)
Time Latitude Longitude Altitude Speed Heading
2026-04-10 00:44 69.97829 23.34830 18 ft 0 kts 211°
2026-04-10 00:48 69.97841 23.34850 18 ft 2 kts 216°
2026-04-10 00:48 69.97849 23.34869 18 ft 2 kts 228°
2026-04-10 00:49 69.97855 23.34891 18 ft 2 kts 236°
2026-04-10 00:49 69.97860 23.34913 18 ft 2 kts 243°
2026-04-10 00:49 69.97864 23.34937 18 ft 2 kts 251°
2026-04-10 00:49 69.97866 23.34957 18 ft 2 kts 257°
2026-04-10 00:50 69.97868 23.34998 18 ft 2 kts 269°
2026-04-10 00:50 69.97867 23.35041 18 ft 2 kts 281°
2026-04-10 00:50 69.97865 23.35067 18 ft 0 kts 289°
2026-04-10 00:50 69.97871 23.35014 18 ft 6 kts 295°
2026-04-10 00:51 69.97891 23.34916 18 ft 3 kts 301°
2026-04-10 00:51 69.97894 23.34902 18 ft 1 kts 301°
2026-04-10 00:51 69.97895 23.34899 18 ft 0 kts 301°
2026-04-10 00:53 69.97895 23.34898 18 ft 0 kts 301°
2026-04-10 00:54 69.97903 23.34863 18 ft 4 kts 301°
2026-04-10 00:54 69.97926 23.34751 18 ft 8 kts 301°
2026-04-10 00:54 69.97963 23.34578 18 ft 10 kts 301°
2026-04-10 00:54 69.98002 23.34398 18 ft 10 kts 309°
2026-04-10 00:55 69.98056 23.34253 19 ft 10 kts 318°
2026-04-10 00:55 69.98110 23.34115 19 ft 10 kts 317°
2026-04-10 00:55 69.98162 23.33972 19 ft 10 kts 316°
2026-04-10 00:55 69.98212 23.33879 19 ft 7 kts 358°
2026-04-10 00:56 69.98257 23.33944 19 ft 5 kts 30°
2026-04-10 00:56 69.98259 23.34015 19 ft 4 kts 109°
2026-04-10 00:56 69.98247 23.34092 19 ft 1 kts 122°
2026-04-10 00:57 69.98244 23.34103 19 ft 5 kts 122°
2026-04-10 00:57 69.98096 23.34817 18 ft 84 kts 121°
2026-04-10 00:58 69.97646 23.36959 52 ft 155 kts 123°
2026-04-10 00:58 69.97038 23.39514 951 ft 152 kts 139°
2026-04-10 00:58 69.96122 23.40262 1979 ft 143 kts 192°
2026-04-10 00:58 69.95269 23.38701 2506 ft 149 kts 229°
2026-04-10 00:59 69.94566 23.36528 2869 ft 148 kts 217°
2026-04-10 00:59 69.93740 23.34663 3220 ft 151 kts 212°
2026-04-10 00:59 69.92889 23.32798 3494 ft 160 kts 217°
2026-04-10 00:59 69.91970 23.30641 3655 ft 180 kts 214°
2026-04-10 01:00 69.90906 23.28436 3887 ft 196 kts 215°
2026-04-10 01:00 69.89792 23.25884 4155 ft 214 kts 217°
2026-04-10 01:00 69.88545 23.23196 4625 ft 231 kts 214°
2026-04-10 01:00 69.87258 23.20390 5400 ft 233 kts 216°
2026-04-10 01:01 69.85954 23.17548 6222 ft 235 kts 216°
2026-04-10 01:01 69.84637 23.14680 6982 ft 237 kts 216°
2026-04-10 01:01 69.83266 23.11703 7348 ft 258 kts 216°
2026-04-10 01:01 69.81753 23.08419 7655 ft 281 kts 217°
2026-04-10 01:02 69.80119 23.04882 7953 ft 303 kts 217°
2026-04-10 01:02 69.78378 23.01119 8273 ft 324 kts 217°
2026-04-10 01:02 69.76532 22.97143 8999 ft 332 kts 217°
2026-04-10 01:02 69.74670 22.93141 9911 ft 333 kts 218°
2026-04-10 01:03 69.72801 22.89128 10713 ft 336 kts 218°
2026-04-10 01:03 69.70892 22.85037 11495 ft 341 kts 218°
2026-04-10 01:03 69.68996 22.80988 12276 ft 343 kts 218°
2026-04-10 01:03 69.67084 22.76915 13040 ft 346 kts 218°
2026-04-10 01:04 69.65134 22.72765 13762 ft 349 kts 218°
2026-04-10 01:04 69.63196 22.68653 14450 ft 352 kts 217°
2026-04-10 01:04 69.61225 22.64482 15169 ft 355 kts 217°
2026-04-10 01:04 69.59255 22.60321 15832 ft 357 kts 217°
2026-04-10 01:05 69.57244 22.56089 16504 ft 359 kts 217°
2026-04-10 01:05 69.55076 22.52490 17112 ft 363 kts 206°
2026-04-10 01:05 69.52808 22.49415 17735 ft 365 kts 206°
2026-04-10 01:05 69.50495 22.46254 18373 ft 367 kts 207°
2026-04-10 01:06 69.48188 22.43101 18950 ft 371 kts 206°
2026-04-10 01:06 69.45841 22.39899 19477 ft 375 kts 207°
2026-04-10 01:06 69.43465 22.36665 20043 ft 378 kts 207°
2026-04-10 01:06 69.41107 22.33463 20616 ft 380 kts 206°
2026-04-10 01:07 69.38701 22.30199 21102 ft 384 kts 206°
2026-04-10 01:07 69.36266 22.26906 21624 ft 387 kts 206°
2026-04-10 01:07 69.33820 22.23609 22146 ft 390 kts 206°
2026-04-10 01:07 69.31399 22.20350 22607 ft 393 kts 206°
2026-04-10 01:08 69.28915 22.17015 23093 ft 396 kts 206°
2026-04-10 01:08 69.26453 22.13722 23604 ft 397 kts 206°
2026-04-10 01:08 69.23919 22.10338 24039 ft 401 kts 206°
2026-04-10 01:08 69.21384 22.06962 24459 ft 404 kts 206°
2026-04-10 01:09 69.18851 22.03599 24885 ft 407 kts 206°
2026-04-10 01:09 69.16301 22.00217 25305 ft 409 kts 205°
2026-04-10 01:09 69.13686 21.96766 25738 ft 412 kts 206°
2026-04-10 01:09 69.11120 21.93382 26128 ft 416 kts 205°
2026-04-10 01:10 69.08465 21.89893 26552 ft 418 kts 205°
2026-04-10 01:10 69.05821 21.86427 26968 ft 421 kts 205°
2026-04-10 01:10 69.03138 21.82919 27378 ft 424 kts 205°
2026-04-10 01:10 69.00445 21.79408 27787 ft 426 kts 205°
2026-04-10 01:11 68.97769 21.75930 28212 ft 428 kts 205°
2026-04-10 01:11 68.95064 21.72422 28574 ft 431 kts 205°
2026-04-10 01:11 68.92313 21.68864 28992 ft 434 kts 205°
2026-04-10 01:11 68.89589 21.65350 29376 ft 436 kts 205°
2026-04-10 01:12 68.86795 21.61756 29729 ft 439 kts 205°
2026-04-10 01:12 68.84026 21.58207 30092 ft 442 kts 205°
2026-04-10 01:12 68.81237 21.54639 30433 ft 444 kts 205°
2026-04-10 01:12 68.78423 21.51053 30754 ft 447 kts 205°
2026-04-10 01:13 68.75588 21.47447 31056 ft 449 kts 205°
2026-04-10 01:13 68.72734 21.43827 31387 ft 451 kts 205°
2026-04-10 01:13 68.69878 21.40214 31654 ft 453 kts 205°
2026-04-10 01:13 68.67014 21.36603 31825 ft 456 kts 205°
2026-04-10 01:14 68.64092 21.32927 31930 ft 460 kts 204°
2026-04-10 01:14 68.61179 21.29277 32192 ft 461 kts 204°
2026-04-10 01:14 68.58281 21.25653 32524 ft 459 kts 204°
2026-04-10 01:14 68.55360 21.22009 32816 ft 459 kts 204°
2026-04-10 01:15 68.52462 21.18409 33126 ft 458 kts 204°
2026-04-10 01:15 68.49567 21.14821 33427 ft 457 kts 204°
2026-04-10 01:15 68.46665 21.11233 33704 ft 456 kts 204°
2026-04-10 01:15 68.43810 21.07713 33988 ft 455 kts 204°
2026-04-10 01:16 68.40919 21.04161 34298 ft 453 kts 204°
2026-04-10 01:16 68.38081 21.00680 34548 ft 453 kts 204°
2026-04-10 01:16 68.35197 20.97155 34770 ft 452 kts 204°
2026-04-10 01:17 68.29456 20.90168 35101 ft 453 kts 204°
2026-04-10 01:17 68.26564 20.86660 35281 ft 453 kts 203°
2026-04-10 01:17 68.23693 20.83193 35429 ft 454 kts 203°
2026-04-10 01:17 68.20850 20.79763 35592 ft 453 kts 203°
2026-04-10 01:18 68.17947 20.76274 35731 ft 454 kts 203°
2026-04-10 01:18 68.15099 20.72860 35881 ft 454 kts 204°
2026-04-10 01:18 68.12188 20.69379 36033 ft 454 kts 203°
2026-04-10 01:18 68.09315 20.65953 36164 ft 454 kts 203°
2026-04-10 01:19 68.06438 20.62532 36273 ft 455 kts 203°
2026-04-10 01:19 68.00587 20.55604 36071 ft 466 kts 203°
2026-04-10 01:20 67.94611 20.48566 36075 ft 465 kts 203°
2026-04-10 01:20 67.88760 20.41715 36066 ft 459 kts 203°
2026-04-10 01:21 67.82903 20.34896 36080 ft 460 kts 202°
2026-04-10 01:21 67.77273 20.27113 36083 ft 461 kts 207°
2026-04-10 01:22 67.71618 20.18983 36067 ft 461 kts 207°
2026-04-10 01:22 67.65990 20.10969 36059 ft 460 kts 207°
2026-04-10 01:23 67.60392 20.03047 36069 ft 461 kts 206°
2026-04-10 01:23 67.54723 19.95066 36065 ft 461 kts 206°
2026-04-10 01:24 67.49074 19.87158 36067 ft 461 kts 206°
2026-04-10 01:24 67.43414 19.79278 36063 ft 462 kts 206°
2026-04-10 01:25 67.37777 19.71471 36071 ft 462 kts 206°
2026-04-10 01:25 67.32104 19.63657 36074 ft 463 kts 206°
2026-04-10 01:26 67.26408 19.55855 36079 ft 463 kts 206°
2026-04-10 01:26 67.20712 19.48093 36086 ft 464 kts 206°
2026-04-10 01:27 67.15016 19.40376 36081 ft 463 kts 206°
2026-04-10 01:27 67.09304 19.32676 36082 ft 463 kts 205°
2026-04-10 01:28 67.03629 19.25064 36085 ft 463 kts 205°
2026-04-10 01:28 66.97915 19.17445 36081 ft 463 kts 205°
2026-04-10 01:29 66.92220 19.09890 36089 ft 463 kts 205°
2026-04-10 01:29 66.86543 19.02399 36110 ft 464 kts 205°
2026-04-10 01:30 66.80837 18.94909 36107 ft 463 kts 205°
2026-04-10 01:30 66.75130 18.87458 36106 ft 463 kts 205°
2026-04-10 01:31 66.69415 18.80035 36091 ft 463 kts 205°
2026-04-10 01:31 66.63639 18.72570 36084 ft 463 kts 205°
2026-04-10 01:32 66.57858 18.65139 36115 ft 463 kts 205°
2026-04-10 01:32 66.54999 18.61480 36351 ft 460 kts 205°
2026-04-10 01:32 66.52129 18.57816 36589 ft 458 kts 205°
2026-04-10 01:32 66.49288 18.54199 36870 ft 456 kts 205°
2026-04-10 01:33 66.46478 18.50629 37165 ft 454 kts 205°
2026-04-10 01:33 66.43646 18.47040 37423 ft 452 kts 205°
2026-04-10 01:33 66.40863 18.43523 37675 ft 450 kts 205°
2026-04-10 01:33 66.38049 18.39975 37928 ft 448 kts 205°
2026-04-10 01:34 66.35292 18.36506 38126 ft 447 kts 205°
2026-04-10 01:34 66.29623 18.29406 38107 ft 454 kts 204°
2026-04-10 01:35 66.23935 18.22317 38112 ft 460 kts 204°
2026-04-10 01:35 66.18199 18.15204 38112 ft 463 kts 204°
2026-04-10 01:36 66.12416 18.08070 38118 ft 466 kts 204°
2026-04-10 01:36 66.06586 18.00911 38127 ft 468 kts 204°
2026-04-10 01:37 66.00752 17.93786 38131 ft 469 kts 204°
2026-04-10 01:37 65.94876 17.86650 38135 ft 470 kts 204°
2026-04-10 01:38 65.88959 17.79498 38124 ft 471 kts 204°
2026-04-10 01:38 65.83048 17.72392 38122 ft 471 kts 204°
2026-04-10 01:39 65.77203 17.65398 38113 ft 467 kts 204°
2026-04-10 01:39 65.71346 17.58429 38118 ft 467 kts 204°
2026-04-10 01:40 65.65449 17.51445 38114 ft 468 kts 204°
2026-04-10 01:40 65.59555 17.44503 38132 ft 469 kts 204°
2026-04-10 01:41 65.53676 17.37610 38125 ft 468 kts 204°
2026-04-10 01:41 65.47804 17.30761 38145 ft 468 kts 203°
2026-04-10 01:42 65.41927 17.23941 38134 ft 468 kts 203°
2026-04-10 01:42 65.36055 17.17162 38130 ft 468 kts 202°
2026-04-10 01:43 65.30176 17.10409 38117 ft 468 kts 203°
2026-04-10 01:43 65.24264 17.03651 38122 ft 468 kts 203°
2026-04-10 01:44 65.18389 16.96968 38136 ft 467 kts 203°
2026-04-10 01:44 65.12505 16.90307 38132 ft 467 kts 203°
2026-04-10 01:45 65.06609 16.83666 38130 ft 469 kts 203°
2026-04-10 01:45 65.00697 16.77041 38128 ft 470 kts 202°
2026-04-10 01:46 64.94763 16.70422 38122 ft 469 kts 203°
2026-04-10 01:46 64.88835 16.63845 38128 ft 469 kts 203°
2026-04-10 01:47 64.82950 16.57344 38140 ft 469 kts 203°
2026-04-10 01:47 64.77013 16.50820 38154 ft 469 kts 203°
2026-04-10 01:48 64.71100 16.44352 38160 ft 468 kts 203°
2026-04-10 01:48 64.65177 16.37905 38152 ft 469 kts 203°
2026-04-10 01:49 64.59234 16.31467 38143 ft 468 kts 202°
2026-04-10 01:49 64.53302 16.25075 38121 ft 469 kts 202°
2026-04-10 01:50 64.47363 16.18704 38125 ft 469 kts 202°
2026-04-10 01:50 64.41410 16.12349 38131 ft 469 kts 202°
2026-04-10 01:51 64.35466 16.06032 38135 ft 470 kts 202°
2026-04-10 01:51 64.29490 15.99714 38131 ft 470 kts 202°
2026-04-10 01:52 64.23516 15.93500 38120 ft 467 kts 199°
2026-04-10 01:52 64.17315 15.88739 38138 ft 467 kts 195°
2026-04-10 01:53 64.11099 15.84095 38148 ft 467 kts 196°
2026-04-10 01:53 64.04909 15.79489 38153 ft 467 kts 195°
2026-04-10 01:54 63.98665 15.74863 38159 ft 467 kts 195°
2026-04-10 01:54 63.92459 15.70291 38163 ft 467 kts 195°
2026-04-10 01:55 63.86260 15.65742 38168 ft 467 kts 196°
2026-04-10 01:55 63.80030 15.61192 38169 ft 466 kts 195°
2026-04-10 01:56 63.73806 15.56667 38175 ft 467 kts 195°
2026-04-10 01:56 63.67596 15.52175 38168 ft 468 kts 195°
2026-04-10 01:57 63.61320 15.47654 38180 ft 468 kts 195°
2026-04-10 01:57 63.55070 15.43174 38177 ft 469 kts 196°
2026-04-10 01:58 63.48837 15.38725 38168 ft 469 kts 195°
2026-04-10 01:58 63.42571 15.34274 38171 ft 468 kts 195°
2026-04-10 01:59 63.36297 15.29839 38173 ft 468 kts 195°
2026-04-10 01:59 63.30083 15.25465 38169 ft 468 kts 195°
2026-04-10 02:00 63.23860 15.21104 38173 ft 468 kts 195°
2026-04-10 02:00 63.17592 15.16733 38163 ft 468 kts 195°
2026-04-10 02:01 63.11290 15.12357 38162 ft 468 kts 195°
2026-04-10 02:01 63.05079 15.08064 38158 ft 469 kts 195°
2026-04-10 02:02 62.98769 15.03723 38149 ft 469 kts 195°
2026-04-10 02:02 62.92476 14.99413 38146 ft 470 kts 195°
2026-04-10 02:03 62.86239 14.95159 38159 ft 470 kts 195°
2026-04-10 02:03 62.79916 14.90865 38176 ft 470 kts 195°
2026-04-10 02:04 62.73599 14.86597 38168 ft 470 kts 195°
2026-04-10 02:04 62.67337 14.82383 38162 ft 469 kts 195°
2026-04-10 02:05 62.60997 14.78138 38162 ft 470 kts 195°
2026-04-10 02:05 62.54668 14.73916 38159 ft 470 kts 195°
2026-04-10 02:06 62.48362 14.69730 38159 ft 470 kts 195°
2026-04-10 02:06 62.42049 14.65557 38160 ft 471 kts 195°
2026-04-10 02:07 62.35738 14.61406 38153 ft 471 kts 195°
2026-04-10 02:07 62.29429 14.57272 38160 ft 471 kts 195°
2026-04-10 02:08 62.23109 14.53149 38150 ft 471 kts 195°
2026-04-10 02:08 62.16775 14.49036 38161 ft 471 kts 195°
2026-04-10 02:09 62.10449 14.44945 38173 ft 471 kts 195°
2026-04-10 02:09 62.04159 14.40705 38162 ft 474 kts 201°
2026-04-10 02:10 61.98336 14.33726 38187 ft 478 kts 207°
2026-04-10 02:10 61.92505 14.26717 38182 ft 477 kts 207°
2026-04-10 02:11 61.86687 14.19809 38172 ft 477 kts 206°
2026-04-10 02:11 61.80878 14.12948 38169 ft 477 kts 206°
2026-04-10 02:12 61.74999 14.06034 38164 ft 477 kts 207°
2026-04-10 02:12 61.69161 13.99197 38164 ft 476 kts 206°
2026-04-10 02:13 61.63314 13.92383 38166 ft 476 kts 207°
2026-04-10 02:13 61.57447 13.85575 38152 ft 478 kts 207°
2026-04-10 02:14 61.51563 13.78773 38147 ft 479 kts 207°
2026-04-10 02:14 61.45697 13.72024 38156 ft 478 kts 207°
2026-04-10 02:15 61.39811 13.65281 38150 ft 477 kts 207°
2026-04-10 02:15 61.33911 13.58552 38165 ft 478 kts 207°
2026-04-10 02:16 61.28010 13.51850 38161 ft 478 kts 207°
2026-04-10 02:16 61.22172 13.45248 38162 ft 479 kts 207°
2026-04-10 02:17 61.13296 13.35264 38167 ft 479 kts 207°
2026-04-10 02:17 61.07397 13.28665 38154 ft 479 kts 206°
2026-04-10 02:18 61.01479 13.22072 38156 ft 479 kts 206°
2026-04-10 02:18 60.95579 13.15528 38168 ft 479 kts 206°
2026-04-10 02:19 60.89705 13.09039 38163 ft 479 kts 206°
2026-04-10 02:19 60.83781 13.02523 38152 ft 479 kts 206°
2026-04-10 02:20 60.77834 12.96010 38156 ft 480 kts 206°
2026-04-10 02:20 60.71901 12.89539 38165 ft 480 kts 206°
2026-04-10 02:21 60.65997 12.83126 38169 ft 481 kts 206°
2026-04-10 02:21 60.60055 12.76702 38166 ft 481 kts 206°
2026-04-10 02:22 60.54132 12.70322 38152 ft 480 kts 206°
2026-04-10 02:22 60.48185 12.63944 38153 ft 480 kts 206°
2026-04-10 02:23 60.42233 12.57587 38161 ft 480 kts 206°
2026-04-10 02:23 60.36271 12.51246 38171 ft 480 kts 206°
2026-04-10 02:24 60.30332 12.44956 38159 ft 481 kts 206°
2026-04-10 02:24 60.24384 12.38681 38161 ft 480 kts 206°
2026-04-10 02:25 60.18431 12.32430 38151 ft 481 kts 205°
2026-04-10 02:25 60.12442 12.26165 38148 ft 480 kts 206°
2026-04-10 02:26 60.06462 12.19934 38151 ft 480 kts 206°
2026-04-10 02:26 60.00490 12.13738 38149 ft 480 kts 206°
2026-04-10 02:27 59.94527 12.07576 38144 ft 481 kts 206°
2026-04-10 02:27 59.88342 12.02241 38140 ft 478 kts 191°
2026-04-10 02:28 59.81707 12.01114 38154 ft 476 kts 181°
2026-04-10 02:28 59.75041 12.00404 38155 ft 475 kts 181°
2026-04-10 02:29 59.68419 11.99664 38160 ft 475 kts 181°
2026-04-10 02:29 59.61726 11.98913 38159 ft 475 kts 181°
2026-04-10 02:30 59.55058 11.98170 38157 ft 476 kts 181°
2026-04-10 02:30 59.48381 11.97427 38160 ft 477 kts 182°
2026-04-10 02:31 59.41720 11.96690 38162 ft 477 kts 182°
2026-04-10 02:31 59.35076 11.95957 38161 ft 476 kts 182°
2026-04-10 02:32 59.28384 11.95228 38166 ft 477 kts 181°
2026-04-10 02:32 59.21686 11.94502 38168 ft 476 kts 182°
2026-04-10 02:33 59.15005 11.93782 38163 ft 477 kts 182°
2026-04-10 02:33 59.08295 11.93060 38157 ft 477 kts 182°
2026-04-10 02:34 59.01617 11.92344 38159 ft 478 kts 182°
2026-04-10 02:34 58.94960 11.91627 38164 ft 478 kts 182°
2026-04-10 02:35 58.88252 11.90906 38164 ft 477 kts 182°
2026-04-10 02:35 58.81550 11.90226 38156 ft 477 kts 179°
2026-04-10 02:36 58.74954 11.91770 38166 ft 476 kts 170°
2026-04-10 02:36 58.68340 11.93607 38156 ft 477 kts 171°
2026-04-10 02:37 58.61720 11.95406 38157 ft 478 kts 171°
2026-04-10 02:37 58.55057 11.97206 38152 ft 478 kts 171°
2026-04-10 02:38 58.48376 11.99004 38151 ft 479 kts 171°
2026-04-10 02:38 58.41771 12.00777 38151 ft 480 kts 171°
2026-04-10 02:39 58.35132 12.02550 38156 ft 480 kts 171°
2026-04-10 02:39 58.28422 12.04337 38146 ft 480 kts 171°
2026-04-10 02:40 58.21685 12.04687 38150 ft 481 kts 189°
2026-04-10 02:40 58.15093 12.01922 38132 ft 483 kts 191°
2026-04-10 02:41 58.08495 11.99379 38131 ft 483 kts 191°
2026-04-10 02:41 58.01839 11.96855 38132 ft 483 kts 191°
2026-04-10 02:42 57.95206 11.94353 38141 ft 482 kts 191°
2026-04-10 02:42 57.88603 11.91872 38157 ft 482 kts 191°
2026-04-10 02:43 57.82009 11.89404 38152 ft 481 kts 191°
2026-04-10 02:43 57.75455 11.86959 38150 ft 481 kts 191°
2026-04-10 02:44 57.68856 11.84507 38143 ft 481 kts 191°
2026-04-10 02:44 57.62290 11.82077 38138 ft 482 kts 191°
2026-04-10 02:45 57.55698 11.79646 38141 ft 482 kts 191°
2026-04-10 02:45 57.49120 11.77228 38125 ft 481 kts 191°
2026-04-10 02:46 57.42545 11.74821 38135 ft 480 kts 191°
2026-04-10 02:46 57.35950 11.72415 38133 ft 480 kts 191°
2026-04-10 02:47 57.29386 11.70029 38125 ft 481 kts 191°
2026-04-10 02:47 57.22791 11.67642 38113 ft 480 kts 191°
2026-04-10 02:48 57.16230 11.65274 38123 ft 480 kts 191°
2026-04-10 02:48 57.09958 11.61519 38129 ft 479 kts 205°
2026-04-10 02:49 57.03847 11.56608 38099 ft 477 kts 204°
2026-04-10 02:49 56.97726 11.51811 38099 ft 477 kts 204°
2026-04-10 02:50 56.91651 11.47079 38093 ft 478 kts 203°
2026-04-10 02:50 56.85572 11.42360 38086 ft 475 kts 203°
2026-04-10 02:51 56.79560 11.37713 38078 ft 468 kts 203°
2026-04-10 02:51 56.73610 11.33128 38081 ft 469 kts 202°
2026-04-10 02:52 56.67630 11.28534 38071 ft 471 kts 202°
2026-04-10 02:52 56.61612 11.23929 38072 ft 472 kts 202°
2026-04-10 02:53 56.55498 11.19265 38077 ft 475 kts 202°
2026-04-10 02:53 56.49340 11.14589 38068 ft 474 kts 203°
2026-04-10 02:54 56.43296 11.10009 38062 ft 468 kts 203°
2026-04-10 02:54 56.37265 11.05459 38060 ft 468 kts 203°
2026-04-10 02:55 56.31252 11.00935 38045 ft 469 kts 203°
2026-04-10 02:55 56.25201 10.96401 38051 ft 470 kts 203°
2026-04-10 02:56 56.19170 10.91894 38044 ft 471 kts 203°
2026-04-10 02:56 56.13097 10.87371 38036 ft 471 kts 203°
2026-04-10 02:57 56.07062 10.82895 38037 ft 470 kts 203°
2026-04-10 02:57 56.00983 10.78401 38026 ft 469 kts 203°
2026-04-10 02:58 55.94951 10.73958 38035 ft 466 kts 203°
2026-04-10 02:58 55.88975 10.69570 38003 ft 467 kts 203°
2026-04-10 02:59 55.82956 10.65166 38019 ft 469 kts 203°
2026-04-10 03:00 55.73933 10.58591 38007 ft 468 kts 204°
2026-04-10 03:00 55.67831 10.54164 37995 ft 466 kts 204°
2026-04-10 03:01 55.61810 10.49809 38005 ft 464 kts 204°
2026-04-10 03:01 55.55776 10.45458 38002 ft 462 kts 204°
2026-04-10 03:02 55.49770 10.41145 37997 ft 462 kts 204°
2026-04-10 03:02 55.43764 10.36845 37986 ft 462 kts 204°
2026-04-10 03:03 55.37859 10.32630 37995 ft 462 kts 203°
2026-04-10 03:03 55.31957 10.28430 38003 ft 460 kts 204°
2026-04-10 03:04 55.26003 10.24208 37998 ft 460 kts 203°
2026-04-10 03:04 55.20100 10.20035 37999 ft 459 kts 204°
2026-04-10 03:05 55.14186 10.15870 37986 ft 460 kts 204°
2026-04-10 03:05 55.08228 10.11686 37989 ft 459 kts 204°
2026-04-10 03:06 55.02308 10.07540 37980 ft 459 kts 204°
2026-04-10 03:06 54.96401 10.03419 37976 ft 459 kts 204°
2026-04-10 03:07 54.90472 9.99378 37968 ft 461 kts 200°
2026-04-10 03:07 54.87396 9.98199 38109 ft 465 kts 192°
2026-04-10 03:07 54.84168 9.97219 37934 ft 465 kts 193°
2026-04-10 03:08 54.77936 9.95208 37976 ft 462 kts 194°
2026-04-10 03:08 54.68431 9.92111 37981 ft 464 kts 194°
2026-04-10 03:09 54.62080 9.90060 37981 ft 465 kts 194°
2026-04-10 03:09 54.55677 9.88015 37979 ft 464 kts 194°
2026-04-10 03:10 54.49295 9.85978 37978 ft 464 kts 194°
2026-04-10 03:10 54.42874 9.83918 37954 ft 465 kts 194°
2026-04-10 03:11 54.36455 9.81864 37971 ft 467 kts 194°
2026-04-10 03:11 54.30003 9.79809 37982 ft 468 kts 194°
2026-04-10 03:12 54.23585 9.77763 37987 ft 467 kts 195°
2026-04-10 03:12 54.17161 9.75542 37962 ft 468 kts 195°
2026-04-10 03:13 54.10801 9.73364 37970 ft 467 kts 195°
2026-04-10 03:13 54.04400 9.71176 37974 ft 469 kts 196°
2026-04-10 03:14 53.98024 9.69002 37970 ft 470 kts 196°
2026-04-10 03:14 53.91644 9.66836 37966 ft 470 kts 196°
2026-04-10 03:15 53.85276 9.64682 37953 ft 468 kts 196°
2026-04-10 03:15 53.78857 9.62517 37984 ft 469 kts 196°
2026-04-10 03:16 53.72440 9.60358 37963 ft 468 kts 196°
2026-04-10 03:16 53.65999 9.58200 37979 ft 471 kts 196°
2026-04-10 03:17 53.59385 9.57239 37986 ft 476 kts 189°
2026-04-10 03:17 53.52787 9.56491 37961 ft 474 kts 189°
2026-04-10 03:18 53.46223 9.55113 37978 ft 474 kts 193°
2026-04-10 03:18 53.42937 9.54390 37801 ft 472 kts 193°
2026-04-10 03:18 53.39624 9.53669 37999 ft 470 kts 193°
2026-04-10 03:19 53.33021 9.52239 37965 ft 476 kts 193°
2026-04-10 03:19 53.26376 9.50811 37955 ft 478 kts 193°
2026-04-10 03:20 53.19750 9.49390 37956 ft 474 kts 193°
2026-04-10 03:20 53.13195 9.47990 37960 ft 475 kts 193°
2026-04-10 03:21 53.06562 9.46574 37957 ft 475 kts 193°
2026-04-10 03:21 52.99948 9.45169 37968 ft 475 kts 193°
2026-04-10 03:22 52.93337 9.43753 37976 ft 475 kts 193°
2026-04-10 03:22 52.86755 9.42347 37969 ft 474 kts 193°
2026-04-10 03:23 52.80270 9.40965 37964 ft 473 kts 194°
2026-04-10 03:23 52.73719 9.39571 37968 ft 474 kts 193°
2026-04-10 03:24 52.67108 9.38172 37960 ft 472 kts 193°
2026-04-10 03:24 52.60537 9.36709 37964 ft 471 kts 196°
2026-04-10 03:25 52.54052 9.34979 37978 ft 471 kts 195°
2026-04-10 03:25 52.47516 9.33266 37981 ft 472 kts 195°
2026-04-10 03:26 52.41060 9.31580 37970 ft 472 kts 195°
2026-04-10 03:26 52.34545 9.29885 37975 ft 471 kts 195°
2026-04-10 03:27 52.28082 9.28194 37981 ft 471 kts 195°
2026-04-10 03:27 52.21598 9.26585 37985 ft 472 kts 192°
2026-04-10 03:28 52.15028 9.25442 37968 ft 471 kts 192°
2026-04-10 03:28 52.08456 9.24255 37981 ft 472 kts 193°
2026-04-10 03:29 52.01897 9.22821 37975 ft 468 kts 196°
2026-04-10 03:29 51.95404 9.21093 37980 ft 470 kts 195°
2026-04-10 03:30 51.89151 9.18362 37968 ft 454 kts 213°
2026-04-10 03:30 51.86512 9.15592 37980 ft 444 kts 225°
2026-04-10 03:30 51.84405 9.12073 37985 ft 435 kts 236°
2026-04-10 03:31 51.80643 9.04641 37975 ft 437 kts 234°
2026-04-10 03:31 51.76713 8.97299 37981 ft 435 kts 233°
2026-04-10 03:32 51.72748 8.89959 37984 ft 436 kts 233°
2026-04-10 03:32 51.68807 8.82692 37993 ft 438 kts 234°
2026-04-10 03:33 51.64825 8.75370 38010 ft 436 kts 234°
2026-04-10 03:33 51.60619 8.68268 37992 ft 444 kts 223°
2026-04-10 03:34 51.55169 8.63273 38008 ft 453 kts 215°
2026-04-10 03:34 51.49670 8.58391 37999 ft 452 kts 215°
2026-04-10 03:35 51.44207 8.53507 37997 ft 453 kts 215°
2026-04-10 03:35 51.38742 8.48630 37997 ft 452 kts 215°
2026-04-10 03:36 51.33258 8.43747 37985 ft 452 kts 215°
2026-04-10 03:36 51.28018 8.38432 37976 ft 444 kts 228°
2026-04-10 03:37 51.26042 8.34842 37992 ft 435 kts 239°
2026-04-10 03:37 51.24566 8.30677 38043 ft 433 kts 246°
2026-04-10 03:37 51.21646 8.22312 38016 ft 432 kts 244°
2026-04-10 03:38 51.18779 8.14420 37995 ft 433 kts 243°
2026-04-10 03:38 51.15673 8.05931 38011 ft 433 kts 244°
2026-04-10 03:39 51.12655 7.97714 38010 ft 434 kts 243°
2026-04-10 03:39 51.09633 7.89522 38028 ft 433 kts 244°
2026-04-10 03:40 51.06240 7.81724 37997 ft 442 kts 229°
2026-04-10 03:40 51.03802 7.78661 38052 ft 451 kts 218°
2026-04-10 03:40 51.00946 7.76491 38043 ft 463 kts 205°
2026-04-10 03:41 50.94938 7.72927 38031 ft 455 kts 215°
2026-04-10 03:41 50.89155 7.68720 38041 ft 463 kts 211°
2026-04-10 03:42 50.83363 7.64640 38044 ft 463 kts 211°
2026-04-10 03:42 50.77520 7.60541 38041 ft 462 kts 210°
2026-04-10 03:43 50.72030 7.55832 38032 ft 448 kts 226°
2026-04-10 03:43 50.69904 7.52383 38053 ft 439 kts 238°
2026-04-10 03:43 50.68362 7.48360 38053 ft 431 kts 250°
2026-04-10 03:44 50.67469 7.43889 38062 ft 426 kts 263°
2026-04-10 03:44 50.67404 7.39387 38048 ft 422 kts 279°
2026-04-10 03:44 50.68239 7.34962 38065 ft 423 kts 295°
2026-04-10 03:44 50.69846 7.31240 38075 ft 428 kts 310°
2026-04-10 03:45 50.71954 7.28533 38078 ft 437 kts 324°
2026-04-10 03:45 50.74903 7.26614 38085 ft 447 kts 340°
2026-04-10 03:45 50.80794 7.24097 38042 ft 441 kts 329°
2026-04-10 03:46 50.83256 7.21456 38094 ft 429 kts 313°
2026-04-10 03:46 50.85070 7.17889 38099 ft 424 kts 300°
2026-04-10 03:46 50.88851 7.11041 38078 ft 435 kts 322°
2026-04-10 03:47 50.93455 7.05349 38076 ft 428 kts 306°
2026-04-10 03:47 50.97509 6.99172 38099 ft 431 kts 315°